Flag for Germany Weather past 2 weeks in Rostock, Mecklenburg-Western Pomerania, Germany

Now
35 °F

Low clouds.


Feels Like: 29 °F
Forecast: 35 / 42 °F
Wind: 7 mph from West

Location: Rostock-Warnemuende

Current Time: Mar 3, 2015 at 11:50:18 PM

Latest Report: Mar 3, 2015 at 11:00 PM


Visibility: 10 mi

Pressure: 29.81 "Hg

Humidity: 92%

Dew point: 33 °F

Location of RostockLocation

Historic Weather in Rostock — Graph

°F

Rostock temperature yesterday

Maximum temperature yesterday: 42 °F (at 1:00 PM)
Minimum temperature yesterday: 36 °F (at 7:00 AM)
Average temperature yesterday: 39 °F

Past Weeks' High & Low Weather Summary

 TemperatureHumidityPressure
High49 °F (Feb 26, 4:00 PM)100% (Feb 18, 2:00 AM)30.65 "Hg (Feb 18, 2:00 AM)
Low29 °F (Feb 17, 7:00 AM)44% (Feb 26, 4:00 PM)29.21 "Hg (Feb 21, 2:00 PM)
Average39 °F79%29.85 "Hg
* Reported Feb 16 10:00 PM — Mar 3 10:00 PM, Rostock, Weather by CustomWeather, © 2015

Note: Actual official high and low records may vary slightly from our data, if they occured in-between our weather recording intervals... More about our weather records

Advertising

Rostock weather history for previous 24 hours

 ConditionsComfort  
Time TempWeatherWind HumidityBarometerVisibility
10:00 PM
Tue, Mar 3
33 °FLight snow. Low clouds.2 mph97%29.81 "Hg5 mi
9:00 PM33 °FSnow. Low clouds.2 mph98%29.82 "Hg2 mi
8:00 PM36 °FLight rain. Low clouds.6 mph92%29.84 "Hg6 mi
7:00 PM42 °FOvercast.5 mph61%29.84 "Hg25 mi
6:00 PM41 °FOvercast.2 mph68%29.85 "Hg22 mi
5:00 PM42 °FOvercast.5 mph62%29.87 "Hg25 mi
4:00 PM43 °FOvercast.5 mph60%29.88 "Hg25 mi
3:00 PM44 °FPartly sunny.7 mph59%29.88 "Hg16 mi
2:00 PM44 °FPartly sunny.8 mph62%29.89 "Hg16 mi
1:00 PM42 °FOvercast.7 mph69%29.89 "Hg19 mi
12:00 PM40 °FPartly sunny.7 mph72%29.89 "Hg16 mi
11:00 AM40 °FScattered clouds.7 mph73%29.87 "Hg14 mi
10:00 AM40 °FScattered clouds.7 mph76%29.86 "Hg14 mi
9:00 AM38 °FPassing clouds.7 mph82%29.84 "Hg14 mi
8:00 AM38 °FScattered clouds.8 mph84%29.81 "Hg19 mi
7:00 AM38 °FOvercast.8 mph85%29.79 "Hg22 mi
6:00 AM37 °FOvercast.9 mph90%29.76 "Hg19 mi
5:00 AM36 °FLow clouds.7 mph89%29.74 "Hg19 mi
4:00 AM36 °FOvercast.6 mph84%29.71 "Hg22 mi
3:00 AM36 °FOvercast.6 mph83%29.69 "Hg15 mi
2:00 AM36 °FOvercast.6 mph82%29.67 "Hg16 mi
1:00 AM37 °FPassing clouds.6 mph82%29.65 "Hg17 mi
12:00 AM38 °FClear.6 mph82%29.63 "Hg18 mi
11:00 PM
Mon, Mar 2
38 °FClear.6 mph81%29.61 "Hg16 mi
Weather by CustomWeather, © 2015

See weather overviewHow to use our weather pages